Showing default

CENTISPACE-1 S15, 62584

Orbit data source: Space-Track

CENTISPACE-1 S15, 62584 is a payload satellite owned by Centispace (CN) in LEO that was launched on Mon, 13 Jan 2025 UTC via a JIELONG-3 launch vehicle from the Yellow Sea Launch Area, China (YSLA). Payloads include a variety of satellites, spacecraft, and rockets equipped with specific instruments for various scientific and technological missions. These include communications satellites like Starlink; space stations such as the ISS; scientific satellites like the Hubble; Earth observation satellites from companies like Planet Labs, Umbra, and HawkEye 360; GPS; miniature CubeSats for education and research; and military/defense satellites.

Loading next visibility...
CENTISPACE-1 S15 details
Identifier
62584, 2025-007K
Orbit
LEO
Last TLE update9 hours ago
Origin
Flag of CNCentispace (CN / PRC)
ManufacturerHITSAT
MissionOperational spacecraft
Bus & MotorWK01H, Unknown motor
Mass160 kg wet, 160 kg dry
Launch date (UTC)
2025-01-13 (3 weeks ago)
Launch vehicle
JIELONG-3
Launch site
Yellow Sea Launch Area, China (YSLA)
Object type
Payload
Rocket body
Debris
Shape & HBRUnknown
Radar Cross SectionLarge (>1 m²)

Expand to show TLE details & history

TLE from 9 hours ago
0 CENTISPACE-1 S15
1 62584U 25007K   25035.80182760  .00004745  00000-0  72475-3 0  9994
2 62584  54.9828  35.6796 0013283 349.4406  10.6312 14.75290316  3347
Epoch: 2025-02-04T19:14Z
Definitive object data (Epoch: 2025-02-04T19:14:37.904Z)
Latitude-0.00008°
Longitude-28.18029°
Altitude636.13 km
Speed7.546 km/s
True Right ascension02h 22m 43s
True Declination0° 00' 00"
Sunlit
Object was in daylight at TLE epoch
Visualization TLE readout
Latitude-1.46639°
Longitude151.31931°
Altitude654.631 km
Speed7.526 km/s
Apparent Right ascension15h 54m 23s
Apparent Declination-22° 04' 56"
Sunlit
Object is in daylight
Visualization observer readout
Local Sidereal Time06:13:29
Azimuth69.268° E
Elevation-55.589°
Doppler factor1
Orbital elements
Apogee altitude653.524 km
Perigee altitude634.868 km
Semi-major axis7,022.333 km
Eccentricity0.0013283
Inclination54.9828°
RAAN35.6796°
Arg. of periapsis349.4406°
True anomaly10.65933°
Mean anomaly10.6312°
Eccentric anomaly10.64526°
Mean motion3.68826 °/min
BSTAR0.00072475
Orbital period97.61 mins
Loading maneuver chart data...
Loading historical data...
Loading historical data...
Loading historical data...
Loading historical data...
Loading historical data...
Loading historical data...
Loading historical data...

CENTISPACE-1 S15 Visibility forecast

Observer location: undefined°, undefined

Span
Click to sort rows by Start time (UTC) header in descending order
Start Az.
Max El. time (UTC)
Max El. Az.
Max El.
End time (UTC)
End Az.
4 mins2025-02-05 05:19:41.217Z323.295° NNW2025-02-05 05:21:41.217Z350.764° N13.65°2025-02-05 05:23:41.217Z17.331° NNE
7 mins2025-02-05 08:44:41.217Z337.429° NNW2025-02-05 08:47:41.217Z39.776° NE29.935°2025-02-05 08:51:41.217Z99.469° ESE
7 mins2025-02-05 10:25:41.217Z294.24° NW2025-02-05 10:28:41.217Z241.474° WSW32.949°2025-02-05 10:32:41.217Z164.435° S
7 mins2025-02-06 02:19:41.217Z228.758° WSW2025-02-06 02:22:41.217Z25.195° NE44.389°2025-02-06 02:26:41.217Z46.104° ENE
5 mins2025-02-06 04:02:41.217Z305.688° NW2025-02-06 04:04:41.217Z340.153° N19.753°2025-02-06 04:07:41.217Z23.208° NE
|